Regional Weather Roundup
Issued by NWS Wilmington, NC

Home | Current Version | Previous Version | Text Only | Print | Product List | Glossary On
Versions: 1 2 3 4 5 6 7 8 9 10 11 12 13 14 15 16 17 18 19 20 21 22 23 24 25 26 27 28 29 30 31 32 33 34 35 36 37 38 39 40 41 42 43 44 45 46 47 48 49 50
000
ASUS42 KILM 220810
RWRILM
RWRILM
REGIONAL HOURLY WEATHER ROUNDUP
NATIONAL WEATHER SERVICE WILMINGTON NC
400 AM EDT FRI AUG 22 2014

NOTE: "FAIR" INDICATES FEW OR NO CLOUDS BELOW 12,000 FEET WITH NO
SIGNIFICANT WEATHER AND/OR OBSTRUCTIONS TO VISIBILITY.

...............WFO WILMINGTON COUNTY WARNING AREA...............

......COASTAL NC AND SC COUNTIES......

CITY           SKY/WX    TMP DP  RH WIND       PRES   REMARKS
WILMINGTON     PTCLDY    76  74  93 CALM      30.00F
SOUTHPORT      PTCLDY    77  75  95 CALM      30.01F
N MYRTLE BEACH PTCLDY    76  75  97 W3        30.01F
MYRTLE BEACH   PTCLDY    79  75  89 W5        30.02F

......INLAND NC AND SC COUNTIES.......

CITY           SKY/WX    TMP DP  RH WIND       PRES   REMARKS
LUMBERTON      MOCLDY    74  72  93 CALM      30.00F
ELIZABETHTOWN  PTCLDY    77  75  94 CALM      30.01F
WHITEVILLE     PTCLDY    75  74  95 CALM      30.01S FOG
FLORENCE       CLEAR     75  70  84 CALM      30.01F
DARLINGTON     PTCLDY    73  68  83 CALM      30.02F

....................REST OF NORTH CAROLINA......................

.........EASTERN NC.........

CITY           SKY/WX    TMP DP  RH WIND       PRES   REMARKS
CAPE HATTERAS  MOCLDY    79  78  97 W6        29.97F
JACKSONVILLE   MOCLDY    73  72  94 CALM      30.00F
MOREHEAD CITY  MOCLDY    81  75  82 W3        29.99F
KENANSVILLE    MOCLDY    73  72  94 CALM      30.01F FOG
NEW BERN       CLOUDY    79  73  82 SW3       30.00F
ELIZABETH CITY MOCLDY    77  75  93 W5        29.95F FOG

.........CENTRAL NC.........

CITY           SKY/WX    TMP DP  RH WIND       PRES   REMARKS
RALEIGH DURHAM PTCLDY    73  70  90 CALM      30.01F
ROCKY MOUNT    MOCLDY    74  72  93 CALM      30.00S FOG
ROANOKE RAPIDS NOT AVBL
FAYETTEVILLE   MOCLDY    78  70  76 SW5       29.99F
HOFFMAN        MOCLDY    75  73  92 NE1       30.02F

.........WESTERN NC.........

CITY           SKY/WX    TMP DP  RH WIND       PRES   REMARKS
CHARLOTTE      CLOUDY    76  69  79 CALM      30.04F
GREENSBORO     PTCLDY    73  68  84 CALM      30.02F
HICKORY        NOT AVBL
BOONE          NOT AVBL
ASHEVILLE      NOT AVBL

.....................REST OF SOUTH CAROLINA.....................

.........EASTERN SC.........

CITY           SKY/WX    TMP DP  RH WIND       PRES   REMARKS
CHARLESTON     CLEAR     81  77  88 CALM      30.03S
BEAUFORT MCAS  CLEAR     79  76  90 CALM      30.03S
HILTON HEAD    NOT AVBL

.........CENTRAL SC.........

CITY           SKY/WX    TMP DP  RH WIND       PRES   REMARKS
COLUMBIA       CLEAR     76  69  79 SW3       30.02F
ORANGEBURG     CLEAR     74  71  91 CALM      30.03F
SUMTER SHAW    CLEAR     77  71  83 W1        30.01F

.........WESTERN SC.........

CITY           SKY/WX    TMP DP  RH WIND       PRES   REMARKS
GREENVILLE     NOT AVBL
ROCK HILL      MOCLDY    75  71  87 CALM      30.04F
ANDERSON       CLEAR     72  70  93 CALM      30.06F
CLEMSON        NOT AVBL
GREENWOOD      CLEAR     72  68  87 CALM      30.06F


...................COASTAL AND OFFSHORE REPORTS..................

................LOCAL PIERS AND NC RESERVE................


STATION/POSITION TIME  SKY/WX   TEMP    WIND        PRES    VSBY
                                AIR SEA DIR/SP/G
                 (UTC)          (F)     (DEG/KT/KT) (MB)    (MI)
JOHNY MRCER PIER 0800            80 83  260/  6/  9 1015.4F
NC RESRV MASNBRO 0700            78     270/  2     1016.0S
OCEAN CREST PIER 0800            79 84  290/  4/  5 1015.4F
SPRINGMAID  PIER 0800            80 84  290/  2/  3 1016.3F


................COASTAL AND OFFSHORE BUOYS................


STATION/POSITION TIME  SKY/WX   TEMP    WIND        PRES    VSBY
                                AIR SEA DIR/SP/G
                 (UTC)          (F)     (DEG/KT/KT) (MB)    (MI)
DIMNDSHOAL 41025 0800            81     240/ 10/ 12 1014.8F
WVE H/P(F/S)=  2/ 9 WND WVE H/P(F/S)=  2/ 3 SWL H/P/D(F/S/D)=  2/ 30/ 9

CAPE LOOKOUT     0700            81     260/  9/ 11 1015.8F
ONSLOW BAY 41036 0800            82 83  270/ 10/ 12 1015.4F
WVE H/P(F/S)=  2/ 5 WND WVE H/P(F/S)=  2/ 5 SWL H/P/D(F/S/D)=  2/100/10

5 WRITEBCH 41038 0800            77 83  280/  8/ 10   N/A
MASONBORO  41110 0800               83                N/A
WVE H/P(F/S)=  1/ 5 WND WVE H/P(F/S)=  2/ 5

WILM HARBR 41108 0800               84                N/A
WVE H/P(F/S)=  2/ 4 WND WVE H/P(F/S)=  2/ 4

27WRITEBCH 41037 0700            79 83  270/ 10/ 12 1016.2S
FRYING PAN 41013 NOT AVBL
SUNST NRSH 41024 0700            81     320/  6/  6 1016.4R
CAPRS NRSH 41029 0700            84     240/ 12/ 14   N/A
EDISTO     41004 0800            84 84  240/ 10/ 12 1015.9F
WVE H/P(F/S)=  2/ 8 WND WVE H/P(F/S)=  2/ 4 SWL H/P/D(F/S/D)=  2/ 8



..........OFFSHORE BUOYS BEYOND 100 NM OFFSHORE...........
.....IN A TRIANGLE---HAT TO BERMUDA TO BAHAMAS TO HAT.....


STATION/POSITION TIME  SKY/WX   TEMP    WIND        PRES    VSBY
                                AIR SEA DIR/SP/G
                 (UTC)          (F)     (DEG/KT/KT) (MB)    (MI)
150E HAT   41001 NOT AVBL
W BERMUDA  41048 0740            81 81  240/ 12/ 16 1017.2F
WVE H/P(F/S)=  3/ 7 WND WVE H/P(F/S)=  2/ 6 SWL H/P/D(F/S/D)=  2/260/ 7

ATLANTIC S 41049 0722            83 85  100/ 10/ 12 1018.6F
WVE H/P(F/S)=  3/ 9 WND WVE H/P(F/S)=  2/ 4 SWL H/P/D(F/S/D)=  3/130/ 9

E BAHAMAS  41046 0750            84 85   70/ 17/ 21 1015.6F
WVE H/P(F/S)=  4/ 5 WND WVE H/P(F/S)=  3/ 5 SWL H/P/D(F/S/D)=  2/ 80/ 8

NE BAHAMAS 41047 0707            82 84   60/  4/  8 1018.9F
WVE H/P(F/S)=  3/ 6 SWL H/P/D(F/S/D)=  3/140/ 6

120E CANVRL41010 0800            84 86  190/  6/  8 1017.9F
WVE H/P(F/S)=  2/ 8 WND WVE H/P(F/S)=  2/ 3 SWL H/P/D(F/S/D)=  2/120/ 8


END



USA.gov is the U.S. government's official web portal to all federal, state and local government web resources and services.